Regional Weather Roundup
Issued by NWS

Home | Current Version | Previous Version | Text Only | Print | Product List | Glossary Off
Versions: 1 2 3 4 5 6 7 8 9 10 11 12 13 14 15 16 17 18 19 20 21 22 23 24 25 26 27 28 29 30 31 32 33 34 35 36 37 38 39 40 41 42 43 44 45 46 47 48 49 50

000
ASUS43 KIND 171859
RWRIN

WEATHER ROUNDUP FOR INDIANA
NATIONAL WEATHER SERVICE INDIANAPOLIS IN
300 PM EDT FRI APR 17 2015

NOTE: "FAIR" INDICATES FEW OR NO CLOUDS BELOW 12,000 FEET WITH NO
SIGNIFICANT WEATHER AND/OR OBSTRUCTIONS TO VISIBILITY.

* - STATION DOES NOT REPORT WEATHER SUCH AS PRECIPITATION OR FOG.

+ - STATION NOT QUALITY CONTROLLED BY THE NATIONAL WEATHER SERVICE.
    USE DATA WITH CAUTION...ESPECIALLY DEWPOINT AND RELATIVE
    HUMIDITY OBSERVATIONS.

INZ001>003-010>013-019-020-172000-
NORTHWEST INDIANA

CITY           SKY/WX    TMP DP  RH WIND       PRES   REMARKS
GARY /AIRPORT/ MOSUNNY   77  34  20 VRB5      30.07
RENSSELAER +   SUNNY     75  43  31 W6        30.06F

$$

LMZ046-743>745-172000-
SOUTHERN LAKE MICHIGAN

STATION/POSITION TIME  TEMP WIND        PRES
                       AIR  DIR/SP/G
                 (UTC) (F)  (DEG/KT/KT) (MB)
BURNS HARBOR     1800   62   20/  9/  9 1018.3F
MICHIGAN CITY    1800   68  270/  7/  7   N/A
4NW MICH CITY    1800   60                N/A

$$

INZ004-005-014>016-021>024-172000-
NORTH CENTRAL INDIANA

CITY           SKY/WX    TMP DP  RH WIND       PRES   REMARKS
ELKHART        MOSUNNY   73  37  27 W7        30.05F
GOSHEN         SUNNY     73  46  38 VRB5      30.05F
SOUTH BEND     SUNNY     75  43  31 VRB6      30.05F

$$

INZ006>009-017-018-025>027-172000-
NORTHEAST INDIANA

CITY           SKY/WX    TMP DP  RH WIND       PRES   REMARKS
ANGOLA *+      SUNNY     75  43  31 NW8       30.05F
FORT WAYNE     MOSUNNY   73  42  32 VRB5      30.06F

$$

INZ028-029-035-036-043>045-051>053-172000-
WEST CENTRAL INDIANA

CITY           SKY/WX    TMP DP  RH WIND       PRES   REMARKS
CRAWFORDSVL +  MOSUNNY   71  35  26 E6        30.08S
GREENCASTLE +  MOSUNNY   70  37  30 CALM      30.08F
LAFAYETTE      SUNNY     74  44  34 CALM      30.06F
TERRE HAUTE    SUNNY     72  51  47 W3        30.07F

$$

INZ030>032-037>040-046>048-054>057-064-065-172000-
CENTRAL INDIANA

CITY           SKY/WX    TMP DP  RH WIND       PRES   REMARKS
ANDERSON       SUNNY     72  36  26 CALM      30.08F
COLUMBUS       SUNNY     72  46  40 CALM      30.07F
INDIANAPOLIS   PTSUNNY   74  44  34 VRB5      30.06F
-EAGLE CREEK   SUNNY     73  41  31 SE6       30.07F
KOKOMO *+      SUNNY     73  41  31 NW6       30.06F
MT COMFORT *+  SUNNY     73  21  14 CALM      30.08F
SHELBYVILLE    MOSUNNY   76  45  33 VRB5      30.06F

$$

INZ033-034-041-042-049-050-058-059-172000-
EAST CENTRAL INDIANA

CITY           SKY/WX    TMP DP  RH WIND       PRES   REMARKS
MUNCIE         SUNNY     72  39  30 CALM      30.07F

$$

INZ060-061-067>069-081>083-085>088-172000-
SOUTHWEST INDIANA

CITY           SKY/WX    TMP DP  RH WIND       PRES   REMARKS
EVANSVILLE     CLOUDY    75  59  57 VRB5      30.06F
HUNTINGBURG *+ PTSUNNY   75  57  53 W3        30.06F

$$

INZ062-063-066-070>080-084-089>092-172000-
SOUTH CENTRAL AND SOUTHEAST INDIANA

CITY           SKY/WX    TMP DP  RH WIND       PRES   REMARKS
BLOOMINGTON    SUNNY     75  48  38 CALM      30.07F
MADISON *+     SUNNY     75  45  33 CALM      30.08F

$$




USA.gov is the U.S. government's official web portal to all federal, state and local government web resources and services.